sat.trackr.live / text

‹ back to catalog

ONEWEB-0388

NORAD 49314 · 2021-090AM

PAYLOAD ACTIVE UNKNOWN

§ Identity

Operator
Country
UK
Launch date
2021-10-14
Launch site
VOSTO
Launch vehicle
Mass (kg)
RCS (m²)

Purposes: comms

External: N2YO · Heavens-Above · Gunter

§ Orbital elements

Epoch: 2026-05-24T23:31:51.478752Z

Period
109.11 min
Inclination
87.9152°
Eccentricity
0.0001950
Mean motion
13.19725265 rev/d
Perigee alt
1,184.3 km
Apogee alt
1,187.2 km
Semi-major
7,563.9 km
B*
-8.5871e-5
RAAN
309.5963°
Arg perigee
92.7827°
Mean anomaly
267.3529°
Rev number
22,335

§ Raw data

ONEWEB-03881 49314U 21090AM  26144.98045693 -.00000021  00000+0 -85871-4 0  99912 49314  87.9152 309.5963 0001950  92.7827 267.3529 13.19725265223350

JSON: /api/v1/satellites/49314 · /tle

For live sub-satellite position, see the globe view (requires WebGL).

§ Visibility from observer

Set your observer location to see the next 7 days of passes ≥ 10°. The values pass through the URL so the page stays shareable.

No JS? Fill the form by hand. The geolocation button needs JavaScript.